Regional Weather Roundup
Issued by NWS Goodland, KS

Home | Current Version | Previous Version | Graphics & Text | Print | Product List | Glossary On
Versions: 1 2 3 4 5 6 7 8 9 10 11 12 13 14 15 16 17 18 19 20 21 22 23 24 25 26 27 28 29 30 31 32 33 34 35 36 37 38 39 40 41 42 43 44 45 46 47 48 49 50
000
ASUS43 KGLD 242208
RWRGLD

GOODLAND FORECAST AREA HOURLY WEATHER ROUNDUP
NATIONAL WEATHER SERVICE GOODLAND KS
400 PM MDT WED AUG 24 2016

...OFFICIAL OBSERVATIONS...

CITY           SKY/WX    TMP DP  RH WIND       PRES   REMARKS
GOODLAND KS    CLOUDY    65  44  46 E17       30.16S
HILL CITY KS   CLOUDY    71  55  56 NE16      30.09S
IMPERIAL NEB   CLOUDY    77  36  22 E12       30.15R
MCCOOK NEB     CLOUDY    76  43  30 NE15      30.12S
AKRON CO       CLOUDY    69  32  25 E6        30.20F
BURLINGTON CO  MOSUNNY   73  37  27 NE21      30.17F
LIMON CO       MOSUNNY   75  32  20 E12       30.21S
$$

...UNOFFICIAL OBSERVATIONS...

CITY           SKY/WX    TMP DP  RH WIND       PRES   REMARKS
COLBY KS       CLOUDY    73  45  35 NE15G21   30.16R
NORTON KS      CLOUDY    73  45  35 NE13      30.10R
SHARON SPRINGS   N/A     75  45  34 NE17        N/A
KIT CARSON CO    N/A     75  39  27 MISG        N/A
YUMA CO          N/A     75  41  30 E10         N/A
$$




USA.gov is the U.S. government's official web portal to all federal, state and local government web resources and services.